This is the latest recevied weather packets stored in our database for station/object IK2CHZ-3. If no packets are shown the sender has not sent any weather packets the latest 10 day(s).
| Time | Temp. | Humidity | Pressure | Rain* | Wind** | Luminosity | Snow |
|---|---|---|---|---|---|---|---|
| 1777631821 | 18.33° C | 35% | 1028.1 hPa | 0 mm | - | - | - |
| 1777631161 | 17.78° C | 35% | 1028.3 hPa | 0 mm | - | - | - |
| 1777630502 | 17.78° C | 35% | 1028.4 hPa | 0 mm | - | - | - |
| 1777629842 | 18.33° C | 37% | 1028.4 hPa | 0 mm | - | - | - |
| 1777629181 | 17.22° C | 37% | 1028.4 hPa | 0 mm | - | - | - |
| 1777628521 | 17.22° C | 38% | 1028.5 hPa | 0 mm | - | - | - |
| 1777627861 | 17.22° C | 38% | 1028.5 hPa | 0 mm | - | - | - |
| 1777627202 | 16.67° C | 40% | 1028.5 hPa | 0 mm | - | - | - |
| 1777626541 | 16.67° C | 39% | 1028.5 hPa | 0 mm | - | - | - |
| 1777625882 | 16.67° C | 40% | 1028.6 hPa | 0 mm | - | - | - |
| 1777625280 | 16.11° C | 41% | 1028.7 hPa | 0 mm | - | - | - |
| 1777625221 | 16.11° C | 41% | 1028.7 hPa | 0 mm | - | - | - |
| 1777624854 | 16.11° C | 42% | 1028.6 hPa | 0 mm | - | - | - |
| 1777624562 | 16.11° C | 42% | 1028.6 hPa | 0 mm | - | - | - |
| 1777623901 | 16.11° C | 42% | 1028.5 hPa | 0 mm | - | - | - |
| 1777623241 | 15.56° C | 44% | 1028.5 hPa | 0 mm | - | - | - |
| 1777622582 | 15.56° C | 45% | 1028.4 hPa | 0 mm | - | - | - |
| 1777621922 | 14.44° C | 46% | 1028.3 hPa | 0 mm | - | - | - |
| 1777621261 | 14.44° C | 47% | 1028.3 hPa | 0 mm | - | - | - |
| 1777620602 | 14.44° C | 47% | 1028.3 hPa | 0 mm | - | - | - |
| 1777619942 | 13.89° C | 47% | 1028.3 hPa | 0 mm | - | - | - |
| 1777619282 | 13.33° C | 48% | 1028.1 hPa | 0 mm | - | - | - |
| 1777618622 | 13.33° C | 47% | 1028.1 hPa | 0 mm | - | - | - |
| 1777617960 | 13.33° C | 49% | 1028 hPa | 0 mm | - | - | - |
| 1777617302 | 13.33° C | 50% | 1027.9 hPa | 0 mm | - | - | - |
* Rain latest hour (hover to see other rain measurements)
** Current wind speed in m/s (hover to see current wind gust speed)